Meath Environmental Platform

Observations for Trim Patrick St

Time AQI Temp °C Hum % Pres Pa CO μg/m³ H₂S μg/m³ NO μg/m³ NO₂ μg/m³ O₃ μg/m³ SO₂ μg/m³ PM1 μg/m³ PM2.5 μg/m³ PM10 μg/m³
Thursday 27 August 2026
10:57 3 20.1 78 38,460 0.06 0 0.94 13.93 41.16 0.03 21.72 29.27 29.84
10:56 3 20 78 38,460 0.09 0.27 0.97 14.45 54.18 0 22.57 32.83 37.7
10:55 3 20 79 38,460 0.07 0 1 11.72 39.07 1.41 20 28.51 29.02
10:54 3 20 78 38,460 0.08 0.98 1.29 17.95 51.03 0 20.86 28.54 31.39
10:53 3 20 78 38,460 0.08 0.63 1.39 15.52 34.64 1.83 20.86 29.93 31.86
10:52 3 20 78 38,460 0.09 1.42 1.45 27.08 42.25 0.53 21.72 32.06 35.41
10:51 3 20 78 38,460 0.07 0 1.39 8.67 43.14 1.41 20.86 28.54 29.78
10:50 3 20 78 38,460 0.09 0.84 1.21 13.95 54.47 0 20 30.01 30.63
10:49 3 20 78 38,460 0.09 1.05 1.21 11.31 47.44 0.71 20.86 29.24 29.78
10:48 3 20 78 38,460 0.25 2.69 1.46 17.73 42.27 1.82 20.86 28.55 31.41
10:47 3 19.9 79 38,460 0.08 0.58 1.18 12.1 44.11 0.81 20.86 29.92 31.12
10:46 3 20 79 38,460 0.06 1.27 1.16 14.85 54.68 0 21.72 32.01 36
10:45 3 19.9 78 38,460 0.08 0.69 1.14 15.73 51.76 0.06 20.86 30.63 33.97
10:44 3 19.9 79 38,460 0.07 0.11 1.11 9.19 42.26 1.17 20.86 30.58 33.13
10:43 3 19.9 79 38,460 0.11 2.56 0.8 21.11 47.54 0.64 20.86 31.27 33.1
10:42 3 19.9 79 38,460 0.07 0.43 1.07 15.04 40.58 0.93 18.29 26.36 29
10:41 3 19.9 79 38,460 0.08 0.45 1.07 14.41 37.7 1.4 21.72 31.28 33.83
10:40 3 19.9 79 38,460 0.06 2.14 1.13 20.82 45.46 0.51 22.57 32 35.27
10:39 3 19.9 79 38,460 0.07 1.03 1.28 18.98 37.67 1.28 20 31.28 32.43
10:38 3 19.9 79 38,460 0.07 1.03 1.56 19.2 34.72 0.7 20.86 31.29 31.76